[[{"header":{"parameterUnit":"m.s-1","parameterCategory":1,"la1":30.2991,"la2":30.254,"lo1":-89.0895,"lo2":-89.0444,"dy":0.0017,"dx":0.0017,"nx":28,"ny":28,"refTime":"2024-04-05T03:00:00:Z","depth":0,"parameterNumber":2,"parameterNumberName":"U-component_of_WINDS"},"data":[0,0,0,0,0,0,0,0,0,0,0,0,0,0,0,0,0,0,0,0,0,0,0,0,0,0,0,0,0,0,0,0,0,0,0,0,0,0,0,0,0,0,0,0,0,0,0,0,0,0,0,0,0,0,0,0,0,0,6.2184,6.2185,0,6.2283,6.2284,6.2285,6.2245,6.2243,6.2241,6.2238,6.2341,6.2346,6.2351,0,0,0,0,0,0,0,0,0,0,0,0,0,6.1963,6.1967,6.2184,6.2185,6.2186,6.2283,6.2284,6.2286,6.2246,6.2243,6.224,6.2237,6.234,6.2346,6.2351,0,0,0,0,0,0,0,0,0,0,0,0,0,6.206,6.1968,6.2184,6.2178,6.2179,6.2283,6.2284,6.2286,6.2246,6.2243,6.2239,6.2236,6.2338,6.2345,6.2352,6.2468,0,0,6.2375,6.2378,0,0,0,0,0,0,0,0,6.2055,6.2068,6.2178,6.2179,6.2179,6.2248,6.2244,6.2347,6.2247,6.2221,6.2238,6.2234,6.2313,6.2322,6.2349,6.2473,6.2477,6.2375,6.238,6.2383,6.2385,0,0,0,0,0,0,0,6.2048,6.2064,6.2223,6.2179,6.218,6.2172,6.2182,6.2263,6.2286,6.2223,6.222,6.2232,6.2313,6.2342,6.2351,6.2479,6.2375,6.2382,6.2386,6.2389,6.2707,6.2711,0,0,0,0,0,0,6.2041,6.2058,6.222,6.2226,6.2107,6.2178,6.2189,6.223,6.2284,6.2289,6.2235,6.223,6.2331,6.2342,6.2354,6.2496,6.2383,6.239,6.2394,6.2703,6.2708,6.2712,0,0,0,0,0,0,6.2036,6.2055,6.2216,6.2142,6.2161,6.2186,6.2231,6.2234,6.2262,6.2294,6.2298,6.226,6.2329,6.2344,6.2441,6.2499,6.2393,6.24,6.2698,6.2704,6.271,6.2779,0,0,0,0,0,0,6.203,6.2054,6.2097,6.2143,6.2166,6.23,6.2235,6.2238,6.2275,6.2269,6.2319,6.2323,6.2327,6.243,6.2448,6.2507,6.2406,6.2693,6.2701,6.2708,6.2772,6.2787,6.28,0,0,0,0,0,6.2022,6.2112,6.21,6.212,6.222,6.2303,6.2316,6.2318,6.228,6.2324,6.2345,6.2322,6.249,6.244,6.246,6.2523,6.2689,6.2699,6.2707,6.2766,6.2784,6.2799,0,0,0,0,0,0,6.2073,6.2118,6.2105,6.2212,6.2254,6.2296,6.2353,6.2337,6.2391,6.2384,6.2384,6.2396,6.2497,6.2519,6.2463,6.264,6.2584,6.2597,6.2621,6.2639,6.2653,6.2646,6.2412,0,0,0,0,0,6.2096,6.216,6.2196,6.2288,6.231,6.2328,6.2364,6.2362,6.2406,6.2424,6.2451,6.2495,6.2558,6.26,6.2659,6.2775,6.2786,6.2828,6.2842,6.2853,6.2865,6.2931,6.2951,6.2742,6.2742,6.2742,0,0,6.2146,6.2179,6.2218,6.2299,6.2331,6.2398,6.2343,6.2415,6.2465,6.2434,6.2528,6.2551,6.26,6.2708,6.2756,6.2729,6.2925,6.2864,6.2873,6.2879,6.2942,6.2962,6.298,6.2748,6.2747,6.2746,0,0,6.2271,6.2301,6.2382,6.2416,6.2466,6.2478,6.2498,6.2543,6.2557,6.2651,6.263,6.269,6.2798,6.2835,6.2868,6.301,6.2991,6.3029,6.3102,6.3167,6.3183,6.3198,6.3251,6.327,6.3041,6.3041,6.3041,0,6.2326,6.2425,6.2425,6.2501,6.2538,6.2514,6.2597,6.263,6.2697,6.2724,6.2692,6.2829,6.286,6.2978,6.3013,6.304,6.3064,6.3024,6.3181,6.3195,6.3209,6.326,6.3279,6.3045,6.3045,6.3045,6.3044,0,6.2493,6.2562,6.2621,6.2688,6.2731,6.281,6.2824,6.2868,6.2863,6.2879,6.2977,6.3014,6.3082,6.3109,6.3104,6.3227,6.3209,6.3179,6.3124,6.3233,6.3281,6.33,6.3052,6.305,6.3049,6.3048,0,0,6.2651,6.2718,6.274,6.2772,6.2826,6.288,6.2959,6.3026,6.3065,6.3113,6.318,6.3273,6.3247,6.3284,6.3284,6.334,6.3454,6.3304,6.3305,6.3332,6.3595,6.3618,6.364,6.3442,6.3445,6.3448,6.3591,0,6.2782,6.292,6.2924,6.305,6.3116,6.3095,6.3164,6.3206,6.3224,6.3283,6.3302,6.3369,6.3328,6.3351,6.3405,6.3428,6.3507,6.3418,6.3506,6.3509,6.3496,6.3665,6.3689,6.3822,6.3609,6.3613,6.3615,0,6.2953,6.3007,6.3141,6.3189,6.3216,6.3278,6.3341,6.3397,6.3445,6.3454,6.3498,6.349,6.3572,6.3513,6.3628,6.3568,6.3604,6.3621,6.3626,6.3636,6.357,6.368,6.3864,6.3885,6.3644,6.3642,6.3639,0,6.3058,6.3165,6.3259,6.3286,6.3343,6.3388,6.3414,6.3459,6.35,6.3555,6.3582,6.3646,6.3681,6.3732,6.3742,6.3698,6.3859,6.38,6.387,6.387,6.3905,6.3903,6.4099,6.3926,6.3926,6.3925,6.3925,0,6.3205,6.3288,6.3308,6.3366,6.3459,6.3463,6.3556,6.3579,6.3619,6.3683,6.3668,6.3728,6.3738,6.3801,6.3809,6.3905,6.392,6.3931,6.3933,6.3933,6.3932,6.3958,6.395,6.3931,6.393,6.3929,6.3928,0,6.3339,6.3355,6.3457,6.3504,6.3518,6.3585,6.3625,6.3682,6.3698,6.3779,6.3799,6.3825,6.3898,6.3914,6.4,6.4006,6.4121,6.4112,6.4105,6.4104,6.4175,6.4169,6.4395,6.4426,6.4231,6.4233,6.4235,0,6.3432,6.3496,6.355,6.3592,6.3621,6.3687,6.373,6.3737,6.3781,6.3843,6.3893,6.3965,6.4023,6.4142,6.4169,6.4236,6.4231,6.4305,6.424,6.424,6.4234,6.4231,6.4239,6.4318,6.432,6.4322,6.4323,0,6.3597,6.3603,6.3664,6.3729,6.3779,6.3831,6.3879,6.3914,6.3928,6.398,6.4055,6.41,6.419,6.4262,6.433,6.4358,6.4345,6.4344,6.4364,6.4366,6.436,6.4366,6.414,6.4339,6.4337,6.4336,6.4335,6.4334,6.3715,6.3772,6.382,6.3889,6.3927,6.3973,6.403,6.4054,6.4117,6.419,6.4191,6.4274,6.4323,6.4412,6.4445,6.4511,6.4488,6.4516,6.4524,6.4532,6.4539,6.4348,6.4523,6.4523,6.4522,6.4522,6.4522,0,6.3882,6.3912,6.3975,6.4045,6.41,6.4082,6.4135,6.4183,6.4256,6.4303,6.4361,6.4449,6.452,6.4554,6.4624,6.4671,6.4667,6.4689,6.4687,6.4694,6.4555,6.4531,6.4692,6.4692,6.4692,6.4692,6.4692,6.4692,6.3975,6.4071,6.4082,6.4198,6.4227,6.4309,6.4341,6.4385,6.4422,6.4521,6.458,6.4602,6.4644,6.4718,6.4783,6.4792,6.4819,6.4846,6.4851,6.4721,6.4704,6.4687,6.4665,6.4851,6.4852,6.4985,6.4987,6.4988]},{"header":{"parameterUnit":"m.s-1","parameterCategory":1,"la1":30.2991,"la2":30.254,"lo1":-89.0895,"lo2":-89.0444,"dy":0.0017,"dx":0.0017,"nx":28,"ny":28,"refTime":"2024-04-05T03:00:00:Z","depth":0,"parameterNumber":3,"parameterNumberName":"V-component_of_WINDS"},"data":[0,0,0,0,0,0,0,0,0,0,0,0,0,0,0,0,0,0,0,0,0,0,0,0,0,0,0,0,0,0,0,0,0,0,0,0,0,0,0,0,0,0,0,0,0,0,0,0,0,0,0,0,0,0,0,0,0,0,-0.5282,-0.528,0,-0.5154,-0.5152,-0.5151,-0.5169,-0.5172,-0.5174,-0.5176,-0.5036,-0.5031,-0.5025,0,0,0,0,0,0,0,0,0,0,0,0,0,-0.5534,-0.553,-0.5282,-0.528,-0.5279,-0.5154,-0.5152,-0.5151,-0.5169,-0.5172,-0.5174,-0.5177,-0.5038,-0.5032,-0.5025,0,0,0,0,0,0,0,0,0,0,0,0,0,-0.5417,-0.5528,-0.5282,-0.5273,-0.5271,-0.5154,-0.5152,-0.515,-0.5169,-0.5172,-0.5175,-0.5178,-0.5041,-0.5032,-0.5024,-0.4905,0,0,-0.4997,-0.4994,0,0,0,0,0,0,0,0,-0.5424,-0.5408,-0.5276,-0.5273,-0.5271,-0.5181,-0.519,-0.5068,-0.5168,-0.5207,-0.5176,-0.518,-0.5081,-0.507,-0.5038,-0.4899,-0.4893,-0.4997,-0.4991,-0.4988,-0.4985,0,0,0,0,0,0,0,-0.5432,-0.5413,-0.5231,-0.5274,-0.5271,-0.5273,-0.526,-0.5167,-0.5127,-0.5204,-0.5205,-0.519,-0.5081,-0.5046,-0.5035,-0.4891,-0.4997,-0.4989,-0.4984,-0.4981,-0.4648,-0.4645,0,0,0,0,0,0,-0.5444,-0.542,-0.5235,-0.5227,-0.5357,-0.5266,-0.5251,-0.5206,-0.5128,-0.512,-0.5187,-0.5191,-0.506,-0.5045,-0.503,-0.4887,-0.4988,-0.498,-0.4975,-0.4652,-0.4647,-0.4643,0,0,0,0,0,0,-0.5449,-0.5427,-0.524,-0.5324,-0.53,-0.5258,-0.5208,-0.5202,-0.5168,-0.5116,-0.5108,-0.5161,-0.5062,-0.5042,-0.4937,-0.4882,-0.4976,-0.4968,-0.4656,-0.465,-0.4645,-0.4599,0,0,0,0,0,0,-0.5456,-0.5429,-0.5385,-0.5323,-0.5296,-0.5151,-0.5204,-0.5197,-0.5154,-0.5158,-0.5089,-0.508,-0.5063,-0.495,-0.4928,-0.4872,-0.4961,-0.4661,-0.4653,-0.4647,-0.4605,-0.4593,-0.4582,0,0,0,0,0,-0.5465,-0.5375,-0.5383,-0.536,-0.5241,-0.5148,-0.5132,-0.5116,-0.515,-0.5105,-0.5071,-0.5082,-0.4892,-0.4939,-0.4915,-0.4855,-0.4664,-0.4656,-0.4647,-0.4611,-0.4595,-0.4582,0,0,0,0,0,0,-0.5429,-0.5367,-0.5375,-0.5263,-0.5211,-0.5151,-0.5094,-0.5101,-0.5036,-0.5042,-0.5023,-0.5007,-0.49,-0.4867,-0.492,-0.4737,-0.4782,-0.4769,-0.4762,-0.4747,-0.4736,-0.4746,-0.4954,0,0,0,0,0,-0.5409,-0.5341,-0.5289,-0.5195,-0.5169,-0.5136,-0.5095,-0.5088,-0.5032,-0.5009,-0.4968,-0.4911,-0.4839,-0.4791,-0.4722,-0.4601,-0.4585,-0.4548,-0.4536,-0.4527,-0.4515,-0.4449,-0.4432,-0.4616,-0.4616,-0.4616,0,0,-0.5365,-0.5322,-0.528,-0.5187,-0.5146,-0.5074,-0.5117,-0.5039,-0.4985,-0.4996,-0.4896,-0.4863,-0.4798,-0.4685,-0.4633,-0.4654,-0.4461,-0.4517,-0.451,-0.4503,-0.4439,-0.4422,-0.4406,-0.4611,-0.4612,-0.4612,0,0,-0.5248,-0.521,-0.5128,-0.5086,-0.5025,-0.5004,-0.4984,-0.4924,-0.4903,-0.4803,-0.481,-0.4744,-0.4619,-0.4573,-0.4533,-0.44,-0.4408,-0.4378,-0.4317,-0.4252,-0.4238,-0.4225,-0.4177,-0.4161,-0.4367,-0.4366,-0.4366,0,-0.52,-0.5096,-0.5084,-0.5006,-0.4964,-0.4974,-0.4889,-0.4849,-0.4766,-0.4736,-0.4762,-0.4607,-0.4564,-0.444,-0.4408,-0.4376,-0.4351,-0.4386,-0.4241,-0.4228,-0.4216,-0.417,-0.4152,-0.4363,-0.4364,-0.4364,-0.4364,0,-0.504,-0.4967,-0.4907,-0.4831,-0.4783,-0.4701,-0.4675,-0.4627,-0.4624,-0.4599,-0.4496,-0.4445,-0.4365,-0.4335,-0.433,-0.421,-0.4226,-0.4246,-0.4292,-0.4195,-0.4152,-0.4135,-0.4359,-0.436,-0.4361,-0.4361,0,0,-0.4897,-0.4816,-0.4795,-0.4761,-0.4694,-0.4636,-0.4554,-0.448,-0.4439,-0.4381,-0.4312,-0.4207,-0.4226,-0.4181,-0.417,-0.4114,-0.4012,-0.4142,-0.414,-0.4119,-0.3877,-0.3862,-0.3842,-0.4017,-0.4014,-0.4011,-0.3883,0,-0.4774,-0.4634,-0.4621,-0.4494,-0.4426,-0.4435,-0.4364,-0.4314,-0.4288,-0.4225,-0.4196,-0.4122,-0.4153,-0.4126,-0.407,-0.4036,-0.3963,-0.4045,-0.395,-0.3947,-0.3967,-0.382,-0.3803,-0.3685,-0.3866,-0.3863,-0.3861,0,-0.4612,-0.4554,-0.4421,-0.4365,-0.4335,-0.4272,-0.4203,-0.4143,-0.4086,-0.4071,-0.4022,-0.4019,-0.3933,-0.3982,-0.3863,-0.3919,-0.388,-0.3857,-0.3852,-0.3842,-0.3898,-0.3806,-0.3646,-0.3629,-0.3834,-0.3836,-0.3838,0,-0.4522,-0.4409,-0.4315,-0.4286,-0.4217,-0.4173,-0.4142,-0.4088,-0.4044,-0.3983,-0.3954,-0.3882,-0.3842,-0.3786,-0.3763,-0.3801,-0.3645,-0.3692,-0.3629,-0.3629,-0.3595,-0.3598,-0.3427,-0.3569,-0.357,-0.357,-0.357,0,-0.4386,-0.4304,-0.4274,-0.4216,-0.4125,-0.411,-0.4019,-0.3989,-0.3942,-0.3877,-0.3878,-0.3817,-0.3791,-0.3725,-0.3706,-0.361,-0.3592,-0.3576,-0.3572,-0.3576,-0.3578,-0.355,-0.3558,-0.3565,-0.3566,-0.3567,-0.3568,0,-0.4269,-0.4246,-0.4144,-0.4089,-0.4073,-0.4008,-0.3959,-0.3902,-0.3878,-0.3796,-0.3776,-0.3737,-0.3659,-0.3632,-0.3536,-0.3523,-0.3412,-0.3415,-0.3432,-0.3431,-0.337,-0.3377,-0.3175,-0.3148,-0.3308,-0.3307,-0.3306,0,-0.4185,-0.4123,-0.4061,-0.402,-0.3988,-0.392,-0.3876,-0.3858,-0.3812,-0.3743,-0.3694,-0.3617,-0.3555,-0.343,-0.3392,-0.3319,-0.332,-0.3254,-0.3308,-0.3315,-0.3319,-0.3323,-0.3317,-0.3244,-0.3242,-0.3241,-0.324,0,-0.4037,-0.4029,-0.3967,-0.3901,-0.3849,-0.3795,-0.3743,-0.3708,-0.3682,-0.3629,-0.3552,-0.3504,-0.3408,-0.3331,-0.3257,-0.3222,-0.3226,-0.3224,-0.3205,-0.3209,-0.3222,-0.3214,-0.3405,-0.3228,-0.3229,-0.323,-0.3231,-0.3231,-0.3934,-0.388,-0.3829,-0.3759,-0.3719,-0.367,-0.3615,-0.3585,-0.352,-0.3443,-0.3435,-0.3351,-0.3295,-0.3196,-0.3158,-0.3091,-0.3108,-0.3081,-0.3075,-0.3068,-0.3064,-0.3233,-0.3077,-0.3077,-0.3077,-0.3078,-0.3078,0,-0.3787,-0.3755,-0.3692,-0.362,-0.3565,-0.3577,-0.3519,-0.3472,-0.3399,-0.3348,-0.3288,-0.3198,-0.3124,-0.3081,-0.3006,-0.296,-0.296,-0.2941,-0.2944,-0.2936,-0.3053,-0.3076,-0.2943,-0.2943,-0.2943,-0.2943,-0.2943,-0.2943,-0.3704,-0.3613,-0.3599,-0.3487,-0.3454,-0.3375,-0.3341,-0.3295,-0.3255,-0.3156,-0.3095,-0.3068,-0.302,-0.2942,-0.2874,-0.2863,-0.2835,-0.2814,-0.2805,-0.2914,-0.2928,-0.2941,-0.2964,-0.2808,-0.2808,-0.2694,-0.2693,-0.2692]}]]